Location: Rometta
(44.2000°N, 10.0500°E)
Time: 22:11:53
(UTC+00:00)

USA 267 - Pass Details

Date: 20 January 2021
Orbit: 1099 x 1108 km, 123.0° (Epoch: 03 March)

Event Time Altitude Azimuth Distance (km) Brightness Sun altitude
Exits shadow 19:51:39 46° 259° (W) 1,450 4.1 -38.7°
Drops below altitude 10° 19:56:05 10° 244° (WSW) 2,956 6.0 -39.5°
Sets 19:58:34 0° 242° (WSW) 3,912 6.7 -40.0°
